Station ERXA2 - Eldred Rock MXAK, AK Image indicating link to RSS feed of recent meteorological observations for station ERXA2


Conditions at ERXA2 as of
(7:52 pm AKDT on 04/14/2024)
0352 GMT on 04/15/2024:
     

Click on the graph icon in the table below to see a time series plot of the last five days of that observation.

5-day plot - Wind Direction Wind Direction (WDIR): NE ( 40 deg true )
5-day plot - Wind Speed Wind Speed (WSPD): 2 kts
5-day plot - Wind Gust Wind Gust (GST): 3 kts
5-day plot - Air Temperature Air Temperature (ATMP): 44.8 °F
5-day plot - Dew Point Dew Point (DEWP): 30.4 °F
5-day plot - Wind Speed at 10 Meters Wind Speed at 10 meters (WSPD10M): 2 kts
5-day plot - Wind Speed at 20 Meters Wind Speed at 20 meters (WSPD20M): 2 kts
5-day plot -  Wind Speed, Wind Gust and Atmospheric Pressure Combined plot of Wind Speed, Gust, and Air Pressure
Previous observations
TIME
(AKDT)
5-day plot - Wind Direction
WDIR
 
5-day plot - Wind Speed
WSPD
kts
5-day plot - Wind Gust
GST
kts
5-day plot - Wave Height
WVHT
ft
5-day plot - Dominant Wave Period
DPD
sec
5-day plot - Average Wave Period
APD
sec
5-day plot - Mean Wave Direction
MWD
 
5-day plot - Atmospheric Pressure
PRES
in
5-day plot - Pressure Tendency
PTDY
in
5-day plot - Air Temperature
ATMP
°F
5-day plot - Water Temperature
WTMP
°F
5-day plot - Dew Point
DEWP
°F
5-day plot - Salinity
SAL
psu
5-day plot - Visibility
VIS
nmi
5-day plot - Tide (above MLLW)
TIDE
ft
2024-04-14 07:42 pm E 1 3------ 46.0- 32.9---
2024-04-14 07:32 pm E 1 2------ 46.9- 33.6---
2024-04-14 07:22 pm S 2 3------ 46.2- 34.0---
2024-04-14 07:12 pm S 2 3------ 47.1- 34.3---
2024-04-14 07:02 pm SE 1 2------ 48.4- 34.0---
2024-04-14 06:52 pm W 1 2------ 47.7- 32.7---
2024-04-14 06:42 pm W 2 3------ 46.9- 33.4---
2024-04-14 06:32 pm W 2 3------ 47.1- 33.8---
2024-04-14 06:22 pm SW 2 3------ 46.4- 34.0---
2024-04-14 06:12 pmSSW 3 4------ 46.2- 34.0---
2024-04-14 06:02 pm S 2 5------ 47.1- 34.9---
2024-04-14 05:52 pm SW 1 3------ 48.2- 33.4---
2024-04-14 05:42 pmWNW 1 3------ 47.1- 29.8---
2024-04-14 05:32 pmWNW 2 3------ 45.5- 30.2---
2024-04-14 05:22 pm W 2 3------ 45.7- 32.5---
2024-04-14 05:12 pmWSW 2 4------ 45.0- 32.9---
2024-04-14 05:02 pmWSW 3 5------ 44.4- 32.9---
2024-04-14 04:52 pm W 2 3------ 44.8- 31.6---
2024-04-14 04:42 pm W 2 3------ 45.9- 31.5---
2024-04-14 04:32 pm W 2 3------ 46.4- 31.5---
2024-04-14 04:22 pm W 2 3------ 46.9- 32.4---
2024-04-14 04:12 pmNNW 1 3------ 45.9- 32.2---
2024-04-14 03:52 pmWNW 2 3------ 45.1- 31.6---
2024-04-14 03:42 pmWNW 2 3------ 45.0- 31.5---
2024-04-14 03:32 pmWNW 2 3------ 44.8- 31.1---
2024-04-14 03:22 pm W 2 3------ 44.2- 32.4---
2024-04-14 03:12 pmENE 2 4------ 45.3- 32.4---
2024-04-14 03:02 pm E 2 4------ 44.4- 32.9---
2024-04-14 02:52 pm E 2 4------ 43.9- 33.3---
2024-04-14 02:42 pm NE 2 3------ 43.7- 32.7---
2024-04-14 02:32 pm N 2 5------ 43.5- 33.1---
2024-04-14 02:22 pmNNE 3 4------ 43.3- 32.7---
2024-04-14 02:12 pmNNE 3 4------ 43.7- 32.9---
2024-04-14 02:02 pm N 2 5------ 43.9- 33.4---
2024-04-14 01:52 pmNNW 3 5------ 43.5- 32.9---
2024-04-14 01:42 pmNNE 3 4------ 43.5- 32.7---
2024-04-14 01:32 pmNNE 2 4------ 43.2- 32.5---
2024-04-14 01:22 pm N 3 4------ 42.3- 32.2---
2024-04-14 01:12 pm N 3 5------ 42.6- 31.8---
2024-04-14 01:02 pmNNE 3 4------ 42.6- 31.8---
2024-04-14 12:52 pmNNE 3 4------ 42.6- 32.4---
2024-04-14 12:42 pm N 2 4------ 42.3- 32.4---
2024-04-14 12:32 pm NE 2 3------ 41.5- 32.7---
2024-04-14 12:22 pmENE 2 3------ 41.4- 32.5---
2024-04-14 12:12 pm N 1 3------ 41.0- 32.7---
2024-04-14 12:02 pm W 2 3------ 40.6- 33.1---
2024-04-14 11:52 am W 2 3------ 39.9- 32.5---
2024-04-14 11:42 am W 3 4------ 39.4- 32.7---
2024-04-14 11:32 amWNW 4 5------ 39.4- 32.7---
2024-04-14 11:22 amWNW 3 5------ 39.9- 32.9---
2024-04-14 11:12 amWNW 2 3------ 41.5- 33.6---
2024-04-14 11:02 am E 1 3------ 41.9- 34.2---
2024-04-14 10:52 amSSE 2 5------ 41.4- 34.3---
2024-04-14 10:42 am S 3 6------ 39.9- 34.2---
2024-04-14 10:32 am S 4 6------ 39.0- 33.6---
2024-04-14 10:22 am S 5 7------ 38.8- 34.2---
2024-04-14 10:12 am S 5 7------ 38.7- 34.3---
2024-04-14 10:02 am S 6 8------ 38.3- 34.2---
2024-04-14 09:52 am S 5 7------ 38.5- 34.2---
2024-04-14 09:42 am S 6 9------ 37.9- 34.0---
2024-04-14 09:32 am S 6 10------ 37.9- 34.0---
2024-04-14 09:22 am S 7 10------ 37.9- 33.8---
2024-04-14 09:12 am S 7 11------ 37.8- 34.0---
2024-04-14 09:02 am S 9 12------ 37.8- 33.8---
2024-04-14 08:52 am S 8 11------ 37.8- 34.0---
2024-04-14 08:42 am S 8 11------ 37.8- 33.8---
2024-04-14 08:32 am S 9 12------ 37.8- 33.6---
2024-04-14 08:22 amSSW 9 13------ 37.6- 33.8---
2024-04-14 08:12 amSSW 10 14------ 37.8- 34.0---
2024-04-14 08:02 amSSW 10 14------ 37.8- 33.8---
2024-04-14 07:52 amSSW 11 14------ 37.8- 33.8---
2024-04-14 07:42 amSSW 11 14------ 37.8- 34.0---
2024-04-14 07:32 amSSW 10 13------ 37.8- 33.8---
2024-04-14 07:22 amSSW 12 14------ 37.8- 33.6---
2024-04-14 07:12 amSSW 12 15------ 37.9- 33.8---
2024-04-14 07:02 amSSW 13 15------ 37.9- 33.4---
2024-04-14 06:52 amSSW 13 16------ 37.9- 33.3---
2024-04-14 06:42 amSSW 13 17------ 38.1- 33.3---
2024-04-14 06:32 amSSW 14 17------ 38.1- 33.1---
2024-04-14 06:22 amSSW 14 17------ 38.1- 33.3---
2024-04-14 06:12 amSSW 14 17------ 38.3- 33.1---
2024-04-14 06:02 am S 13 17------ 38.3- 33.3---
2024-04-14 05:52 am S 14 18------ 38.3- 33.1---
2024-04-14 05:42 am S 14 18------ 38.3- 33.4---
2024-04-14 05:32 am S 16 21------ 38.3- 33.3---
2024-04-14 05:22 am S 16 20------ 38.3- 33.3---
2024-04-14 05:12 am S 16 20------ 38.3- 32.9---
2024-04-14 05:02 am S 17 22------ 38.5- 32.9---
2024-04-14 04:52 am S 14 20------ 38.7- 33.1---
2024-04-14 04:42 am S 15 21------ 38.5- 32.9---
2024-04-14 04:32 am S 14 19------ 38.5- 32.9---
2024-04-14 04:22 am S 15 19------ 38.5- 32.9---
2024-04-14 04:12 am S 16 22------ 38.5- 32.9---
2024-04-14 04:02 am S 17 22------ 38.3- 32.9---
2024-04-14 03:52 am S 15 21------ 38.1- 33.3---
2024-04-14 03:42 am S 16 23------ 38.3- 33.4---
2024-04-14 03:32 am S 18 22------ 38.7- 33.8---
2024-04-14 03:22 am S 16 21------ 38.8- 33.6---
2024-04-14 03:12 am S 15 20------ 38.8- 33.6---
2024-04-14 03:02 am S 14 20------ 38.7- 33.4---
2024-04-14 02:52 am S 14 21------ 38.7- 33.3---
2024-04-14 02:42 am S 14 20------ 38.8- 33.1---
2024-04-14 02:32 am S 12 19------ 38.7- 33.3---
2024-04-14 02:22 am S 13 18------ 38.7- 33.3---
2024-04-14 02:12 am S 15 22------ 38.7- 33.6---
2024-04-14 02:02 am S 16 21------ 38.5- 34.0---
2024-04-14 01:52 am S 15 22------ 38.7- 34.0---
2024-04-14 01:42 am S 16 24------ 38.7- 34.0---
2024-04-14 01:32 am S 15 22------ 38.7- 34.3---
2024-04-14 01:22 am S 17 22------ 38.7- 34.2---
2024-04-14 01:12 am S 18 24------ 38.7- 34.7---
2024-04-14 01:02 am S 18 24------ 38.7- 34.5---
2024-04-14 12:52 am S 17 24------ 38.5- 34.7---
2024-04-14 12:42 am S 17 25------ 38.5- 34.3---
2024-04-14 12:32 am S 17 25------ 38.5- 34.9---
2024-04-14 12:22 am S 18 25------ 38.7- 34.9---
2024-04-14 12:12 am S 17 24------ 38.7- 35.1---
2024-04-14 12:02 am S 19 25------ 38.8- 35.1---
2024-04-13 11:52 pm S 20 27------ 38.8- 35.1---
2024-04-13 11:42 pm S 18 24------ 38.8- 35.2---
2024-04-13 11:32 pm S 20 26------ 38.8- 35.2---
2024-04-13 11:22 pm S 18 27------ 38.8- 35.4---
2024-04-13 11:12 pm S 18 25------ 38.8- 35.4---
2024-04-13 11:02 pm S 18 28------ 38.7- 35.2---
2024-04-13 10:52 pm S 20 28------ 38.7- 35.4---
2024-04-13 10:42 pm S 20 29------ 38.7- 35.4---
2024-04-13 10:32 pm S 20 29------ 38.8- 35.6---
2024-04-13 10:22 pm S 18 28------ 38.8- 35.8---
2024-04-13 10:12 pm S 17 24------ 38.7- 35.4---
2024-04-13 10:02 pm S 18 27------ 38.7- 35.1---
2024-04-13 09:52 pm S 15 25------ 39.2- 33.6---
2024-04-13 09:42 pm S 17 26------ 39.0- 33.1---
2024-04-13 09:32 pm S 17 27------ 37.8- 35.2---
2024-04-13 09:22 pm S 15 20------ 37.2- 35.1---
2024-04-13 09:12 pm S 17 24------ 37.4- 35.1---
2024-04-13 09:02 pm S 18 24------ 38.3- 35.6---
2024-04-13 08:52 pm S 16 24------ 38.3- 35.8---
2024-04-13 08:42 pm S 17 25------ 39.4- 36.0---
2024-04-13 08:22 pm S 19 26------ 39.6- 36.0---
2024-04-13 08:12 pm S 20 28------ 39.7- 36.0---
2024-04-13 08:02 pm S 20 26------ 39.7- 36.0---
2024-04-13 07:52 pm S 19 25------ 39.4- 36.1---